Darstellungsparameter: Aktuell verwendete Einstellungen:
Skalierung der Graphiken ... ?
xyx+y,   Skalierungsfaktor:      Skalierung: Modus: x, Faktor: 1
Darstellungszeitraum ... ?
Vom - - bis: - -   Zeitraum: 04.12.2009 - 03.03.2010
Min/Max/Avg-Anzeige ... ?
Zeige MMA aktuell
Zeige MMA Monat
Zeige MMA alles
Zeige --A aktuell
Zeige --A Monat
Zeige --A alles
Keine MMA-Anzeige
MMA:
Average (ber die Originaldaten)
MMA-Basis: 02.02.2010 - 04.03.2010
Quicknavigation für Darstellung... ?
Tage:      1T, 2T, 3T, 5T -1T -2T -3T -5T +1T +2T +3T +5T
Wochen: 1W, 2W, 3W -1W -2W -3W +1W +2W +3W
Monate: 1M, 3M, 6M -1M -3M -6M +1M +3M +6M
Jahre:    1J, 3J, 5J, 10J -1J -3J -5J -10J +1J +3J +5J +10J
Nutze für die Darstellung ... ?
Originaldaten oder ...
Mittelwerte Minima Maxima auf...
Stundenbasis Tagesbasis Wochenbasis
Monatsbasis Jahresbasis      Datenbasis: Mittelwerte auf Tagesbasis
Darstellen als:
Statistik (Auto) Statistik J:M      Darstellung:
Zur Graphik,    zurück zur Übersicht aller Sensoren.
 
Tabellarische Datenbersicht: ?
 
Sensor: Nr:Datum:Temp:Abs-Feuchte:Windchill:Wind:
Aussen-T/F 1 04-12-2009 00:00:00 4.73917 C 4.37 g/m*3 4.74 C 0 km/h
2 05-12-2009 00:00:00 5.3975 C 5.13 g/m*3 5.4 C 0 km/h
3 06-12-2009 00:00:00 9.83 C 7.53 g/m*3 9.83 C 0 km/h
4 07-12-2009 00:00:00 5.59917 C 6.01 g/m*3 5.6 C 0 km/h
5 08-12-2009 00:00:00 6.95833 C 6.27 g/m*3 6.96 C 0 km/h
6 09-12-2009 00:00:00 7.2525 C 6.19 g/m*3 7.25 C 0 km/h
7 10-12-2009 00:00:00 8.78583 C 6.99 g/m*3 8.79 C 0 km/h
8 11-12-2009 00:00:00 6.665 C 6.16 g/m*3 6.67 C 0 km/h
9 12-12-2009 00:00:00 3.47833 C 5.29 g/m*3 3.48 C 0 km/h
10 13-12-2009 00:00:00 1.50924 C 3.54 g/m*3 1.51 C 0 km/h
11 14-12-2009 00:00:00 -0.80667 C 2.67 g/m*3 -0.81 C 0 km/h
12 15-12-2009 00:00:00 -0.50083 C 2.88 g/m*3 -0.5 C 0 km/h
13 16-12-2009 00:00:00 -1.19917 C 2.79 g/m*3 -1.2 C 0 km/h
14 17-12-2009 00:00:00 -4.445 C 2.62 g/m*3 -4.45 C 0 km/h
15 18-12-2009 00:00:00 -5.04417 C 2.34 g/m*3 -5.04 C 0 km/h
16 19-12-2009 00:00:00 -12.79 C 1.12 g/m*3 -12.79 C 0 km/h
17 20-12-2009 00:00:00 -8.03917 C 1.87 g/m*3 -8.04 C 0 km/h
18 21-12-2009 00:00:00 -2.18417 C 3.25 g/m*3 -2.18 C 0 km/h
19 22-12-2009 00:00:00 2.7175 C 5.09 g/m*3 2.72 C 0 km/h
20 23-12-2009 00:00:00 0.49333 C 4.68 g/m*3 0.49 C 0 km/h
21 24-12-2009 00:00:00 2.31333 C 5.15 g/m*3 2.31 C 0 km/h
22 25-12-2009 00:00:00 4.38824 C 5.08 g/m*3 4.39 C 0 km/h
23 26-12-2009 00:00:00 2.04583 C 4.45 g/m*3 2.05 C 0 km/h
24 27-12-2009 00:00:00 0.5475 C 4.38 g/m*3 0.55 C 0 km/h
25 28-12-2009 00:00:00 3.1425 C 4.49 g/m*3 3.14 C 0 km/h
Sensor: Nr:Datum:Temp:Abs-Feuchte:Windchill:Wind:
Aussen-T/F 26 29-12-2009 00:00:00 0.4625 C 4.61 g/m*3 0.46 C 0 km/h
27 30-12-2009 00:00:00 7.05667 C 7.27 g/m*3 7.06 C 0 km/h
28 31-12-2009 00:00:00 5.32667 C 6.59 g/m*3 5.33 C 0 km/h
29 01-01-2010 00:00:00 -0.1725 C 4.38 g/m*3 -0.17 C 0 km/h
30 02-01-2010 00:00:00 -1.51083 C 3.34 g/m*3 -1.51 C 0 km/h
31 03-01-2010 00:00:00 -1.79667 C 3.45 g/m*3 -1.8 C 0 km/h
32 04-01-2010 00:00:00 -5.24083 C 2.41 g/m*3 -5.24 C 0 km/h
33 05-01-2010 00:00:00 -8.00083 C 2.22 g/m*3 -8 C 0 km/h
34 06-01-2010 00:00:00 -6.88917 C 2.25 g/m*3 -6.89 C 0 km/h
35 07-01-2010 00:00:00 -3.75966 C 2.79 g/m*3 -3.76 C 0 km/h
36 08-01-2010 00:00:00 -4.82167 C 2.54 g/m*3 -4.82 C 0 km/h
37 09-01-2010 00:00:00 -2.655 C 3.05 g/m*3 -2.66 C 0 km/h
38 10-01-2010 00:00:00 -1.87083 C 3.27 g/m*3 -1.87 C 0 km/h
39 11-01-2010 00:00:00 -1.42833 C 3.62 g/m*3 -1.43 C 0 km/h
40 12-01-2010 00:00:00 -1.65833 C 3.4 g/m*3 -1.66 C 0 km/h
41 13-01-2010 00:00:00 -2.2325 C 2.99 g/m*3 -2.23 C 0 km/h
42 14-01-2010 00:00:00 0.35417 C 3.98 g/m*3 0.35 C 0 km/h
43 15-01-2010 00:00:00 0.87333 C 4.07 g/m*3 0.87 C 0 km/h
44 16-01-2010 00:00:00 -0.11833 C 3.75 g/m*3 -0.12 C 0 km/h
45 17-01-2010 00:00:00 2.09667 C 5.1 g/m*3 2.1 C 0 km/h
46 18-01-2010 00:00:00 3.38333 C 5.07 g/m*3 3.38 C 0 km/h
47 19-01-2010 00:00:00 2.24583 C 5.1 g/m*3 2.25 C 0 km/h
48 20-01-2010 00:00:00 1.97417 C 4.66 g/m*3 1.97 C 0 km/h
49 21-01-2010 00:00:00 2.45126 C 4.02 g/m*3 2.45 C 0 km/h
50 22-01-2010 00:00:00 2.93667 C 4.24 g/m*3 2.94 C 0 km/h
Sensor: Nr:Datum:Temp:Abs-Feuchte:Windchill:Wind:
Aussen-T/F 51 23-01-2010 00:00:00 -0.41333 C 3.36 g/m*3 -0.41 C 0 km/h
52 24-01-2010 00:00:00 0.27167 C 4.06 g/m*3 0.27 C 0 km/h
53 25-01-2010 00:00:00 0.01667 C 4.19 g/m*3 0.02 C 0 km/h
54 26-01-2010 00:00:00 -3.325 C 2.8 g/m*3 -3.33 C 0 km/h
55 27-01-2010 00:00:00 -5.54083 C 2.18 g/m*3 -5.54 C 0 km/h
56 28-01-2010 00:00:00 1.20667 C 4.04 g/m*3 1.21 C 0 km/h
57 29-01-2010 00:00:00 1.39083 C 4.5 g/m*3 1.39 C 0 km/h
58 30-01-2010 00:00:00 -1.54583 C 3.39 g/m*3 -1.55 C 0 km/h
59 31-01-2010 00:00:00 -1.62333 C 3.2 g/m*3 -1.62 C 0 km/h
60 01-02-2010 00:00:00 0.20167 C 3.69 g/m*3 0.2 C 0 km/h
61 02-02-2010 00:00:00 0.69916 C 4 g/m*3 0.7 C 0 km/h
62 03-02-2010 00:00:00 2.28899 C 5.05 g/m*3 2.29 C 0 km/h
63 04-02-2010 00:00:00 4.17018 C 5.55 g/m*3 4.17 C 0 km/h
64 05-02-2010 00:00:00 3.29649 C 4.9 g/m*3 3.3 C 0 km/h
65 06-02-2010 00:00:00 4.55172 C 5.47 g/m*3 4.55 C 0 km/h
66 07-02-2010 00:00:00 4.17018 C 5.02 g/m*3 4.17 C 0 km/h
67 08-02-2010 00:00:00 -0.75 C 2.85 g/m*3 -0.75 C 0 km/h
68 09-02-2010 00:00:00 -3.74483 C 2.17 g/m*3 -3.74 C 0 km/h
69 10-02-2010 00:00:00 -4.8 C 2.32 g/m*3 -4.8 C 0 km/h
70 11-02-2010 00:00:00 -3.79828 C 2.62 g/m*3 -3.8 C 0 km/h
71 12-02-2010 00:00:00 -2.14737 C 2.95 g/m*3 -2.15 C 0 km/h
72 13-02-2010 00:00:00 -2.57414 C 2.82 g/m*3 -2.57 C 0 km/h
73 14-02-2010 00:00:00 -2.13621 C 3.1 g/m*3 -2.14 C 0 km/h
74 15-02-2010 00:00:00 -1.12632 C 3.21 g/m*3 -1.13 C 0 km/h
75 16-02-2010 00:00:00 -1.16379 C 3.02 g/m*3 -1.16 C 0 km/h
Sensor: Nr:Datum:Temp:Abs-Feuchte:Windchill:Wind:
Aussen-T/F 76 17-02-2010 00:00:00 -1.61754 C 3.18 g/m*3 -1.62 C 0 km/h
77 18-02-2010 00:00:00 3.2569 C 4.56 g/m*3 3.26 C 0 km/h
78 19-02-2010 00:00:00 3.59375 C 4.12 g/m*3 3.59 C 0 km/h
79 20-02-2010 00:00:00 1.69333 C 3.53 g/m*3 1.69 C 0 km/h
80 21-02-2010 00:00:00 2.87833 C 4.25 g/m*3 2.88 C 0 km/h
81 22-02-2010 00:00:00 6.76417 C 5.24 g/m*3 6.76 C 0 km/h
82 23-02-2010 00:00:00 9.7875 C 7.07 g/m*3 9.79 C 0 km/h
83 24-02-2010 00:00:00 9.55 C 6.5 g/m*3 9.55 C 0 km/h
84 25-02-2010 00:00:00 9.58 C 5.92 g/m*3 9.58 C 0 km/h
85 26-02-2010 00:00:00 8.62667 C 5.33 g/m*3 8.63 C 0 km/h
86 27-02-2010 00:00:00 8.4025 C 4.07 g/m*3 8.4 C 0 km/h
87 28-02-2010 00:00:00 8.30667 C 5.5 g/m*3 8.31 C 0 km/h
88 01-03-2010 00:00:00 5.40917 C 3.85 g/m*3 5.41 C 0 km/h
89 02-03-2010 00:00:00 3.135 C 3.87 g/m*3 3.14 C 0 km/h
90 03-03-2010 00:00:00 2.9925 C 3.33 g/m*3 2.99 C 0 km/h

Maximal/Minimal-Werte vom 02.02.2010 - 04.03.2010

Sensor Min Max Avg
Temp
(Aussen-T/F)
-8.1 °C
11-02-2010  01:46:20
15.9 °C
27-02-2010  15:30:01
3.69 °C

Die Daten stammen von einer Davis Vantage Pro 2 Wetter-Station und werden unter Linux mit der Software wview2wettercgi und aufbereitet. Alle Angaben erfolgen ohne Gewähr für ihre Vollständigkeit oder Richtigkeit.
Kontakt: Rainer Krienke krienke@uni-koblenz.de . Meine Webseiten an der Uni Koblenz oder privat.
Version: $Revision: 0.78 $